Preview of NWS' New Version of Forecast
This preview is not operational and should not be used for support decisions.

Regional Weather Roundup (RWR)

Issued by San Angelo, TX (SJT)

                            
000
ASUS44 KSJT 170515
RWRSJT
WEST CENTRAL TEXAS REGIONAL WEATHER ROUNDUP
NATIONAL WEATHER SERVICE SAN ANGELO TX
1100 PM CST SUN DEC 16 2018

NOTE: "FAIR" INDICATES FEW OR NO CLOUDS BELOW 12,000 FEET WITH NO
SIGNIFICANT WEATHER AND/OR OBSTRUCTIONS TO VISIBILITY.

TXZ049-054-064>066-071>073-076>078-098-099-113-114-127-128-139-140-
154-155-168>170-170600
...LOCATIONS ACROSS WEST CENTRAL TEXAS...
  
CITY           SKY/WX    TMP DP  RH WIND       PRES   REMARKS
SAN ANGELO     PTCLDY    47  38  71 NW3       30.28S                  
ABILENE        PTCLDY    44  38  79 CALM      30.29F                  
DYESS AFB      MOCLDY    50  37  62 CALM      30.31F                  
JUNCTION       PTCLDY    44  37  76 NW6       30.29S                  
SWEETWATER     PTCLDY    48  32  53 CALM      30.31                   
BROWNWOOD      PTCLDY    46  37  71 CALM      30.28F                  
COLEMAN        CLOUDY    51  35  53 N3        30.28F                  
SONORA         PTCLDY    43  34  70 CALM      30.33S                  
OZONA          FAIR      43  34  70 CALM      30.31F                  
BRADY          MOCLDY    46  36  66 N6        30.27F                  
$$

TEXAS PANHANDLE/OKLAHOMA PANHANDLE
  
CITY           SKY/WX    TMP DP  RH WIND       PRES   REMARKS
AMARILLO       CLOUDY    37  17  44 NE7       30.31F WCI  32          
BORGER         CLOUDY    44  19  36 CALM      30.33S                  
CANADIAN       CLOUDY    28  20  72 SW3       30.33S                  
DALHART        CLEAR     32  16  51 CALM      30.34S                  
DUMAS          CLOUDY    36  18  48 CALM      30.33F                  
GUYMON         NOT AVBL                                               
HEREFORD       CLOUDY    29  17  62 NW3       30.34R                  
PAMPA          CLOUDY    35  21  57 SE5       30.33S WCI  30          
PERRYTON       CLOUDY    34  22  62 CALM      30.32                   
$$

SOUTHERN PANHANDLE/SOUTH PLAINS/ROLLING PLAINS
  
CITY           SKY/WX    TMP DP  RH WIND       PRES   REMARKS
LUBBOCK        CLOUDY    37  30  75 CALM      30.31R                  
SNYDER         CLOUDY    45  34  66 N5        30.30                   
CHILDRESS      CLOUDY    44  24  45 N6        30.32R                  
SEMINOLE       CLOUDY    41  32  69 NE3       30.33S                  
$$

PERMIAN BASIN
  
CITY           SKY/WX    TMP DP  RH WIND       PRES   REMARKS
MIDLAND        PTCLDY    46  35  65 W5        30.28R                  
ODESSA         CLOUDY    45  32  60 W6        30.29R                  
WINK           CLOUDY    43  35  73 NW5       30.29R                  
$$

FAR WEST/SOUTHWEST MOUNTAINS/TRANS PECOS
  
CITY           SKY/WX    TMP DP  RH WIND       PRES   REMARKS
ALPINE         PTCLDY    45  18  34 SW8       30.37S                  
DRYDEN         NOT AVBL                                               
EL PASO        CLOUDY    51  25  36 NE6       30.30F                  
FORT STOCKTON  CLOUDY    44  34  67 SW6       30.30S                  
GUADALUPE PASS NOT AVBL                                               
MARFA          NOT AVBL                                               
PECOS          PTCLDY    42  35  75 CALM      30.30S                  
$$

DALLAS/FORT WORTH METROPLEX
  
CITY           SKY/WX    TMP DP  RH WIND       PRES   REMARKS
DFW AIRPORT    CLOUDY    51  37  58 NW7       30.24S                  
FTW MEACHAM    MOCLDY    48  38  68 NW3       30.26R                  
DAL-EXECUTIVE    N/A     49  39  68 NW7       30.25R                  
GRAND PRAIRIE  MOCLDY    52  37  55 CALM      30.28                   
ADDISON        CLOUDY    50  37  61 CALM      30.27R                  
MESQUITE       CLOUDY    46  38  75 S5        30.26                   
LANCASTER      CLOUDY    47  39  74 CALM      30.27S                  
$$

NORTH CENTRAL TEXAS
  
CITY           SKY/WX    TMP DP  RH WIND       PRES   REMARKS
SHRMAN/DENISON CLOUDY    44  37  74 CALM      30.26S                  
GAINESVILLE    CLOUDY    44  34  68 NE9       30.27S WCI  39          
BRIDGEPORT     CLOUDY    46  38  73 NW5       30.29                   
DENTON         CLOUDY    44  37  76 W5        30.25S                  
WAXAHACHIE     MOCLDY    48  41  75 W3        30.27F                  
GRANBURY       MOCLDY    50  38  64 W6        30.29R                  
$$

WESTERN NORTH TEXAS
  
CITY           SKY/WX    TMP DP  RH WIND       PRES   REMARKS
WICHITA FALLS  CLOUDY    44  35  70 NW6       30.29R                  
VERNON         CLOUDY    43  26  51 N7        30.32  WCI  39          
BRECKENRIDGE   PTCLDY    46  36  68 CALM      30.29R                  
COMANCHE       CLOUDY    52  36  54 N7        30.28F                  
$$

CENTRAL AND SOUTH CENTRAL TEXAS
  
CITY           SKY/WX    TMP DP  RH WIND       PRES   REMARKS
AUSTIN/BERGSTM CLOUDY    50  41  71 S3        30.28F                  
WACO           CLOUDY    49  41  74 CALM      30.27R                  
HILLSBORO      MOCLDY    48  43  81 S6        30.26S                  
TEMPLE         MOCLDY    51  40  65 S7        30.27F                  
KILLEEN-GRAY   CLOUDY    50  40  70 SE3       30.25F                  
FORT HOOD      CLOUDY    50  43  76 NW3       30.23F                  
GEORGETOWN     MOCLDY    51  41  68 CALM      30.29S                  
LAGO VISTA     FAIR      56  36  47 S3        30.28S                  
SAN MARCOS     CLOUDY    48  41  76 CALM      30.29F                  
NEW BRAUNFELS  CLOUDY    50  40  68 CALM      30.28S                  
RANDOLPH AFB   CLOUDY    51  40  65 CALM      30.29R                  
SAN ANTONIO    CLOUDY    52  40  63 CALM      30.29R                  
STINSON        CLOUDY    52  35  52 CALM      30.27R                  
PLEASANTON     NOT AVBL                                               
LA GRANGE      CLOUDY    51  41  69 CALM      30.27S                  
GIDDINGS       MOCLDY    47  42  81 CALM      30.29F                  
$$

EAST TEXAS
  
CITY           SKY/WX    TMP DP  RH WIND       PRES   REMARKS
PARIS          CLOUDY    45  39  79 SW3       30.24S                  
CLARKSVILLE    NOT AVBL                                               
TYLER          CLOUDY    51  46  83 SW5       30.26R                  
LONGVIEW       CLOUDY    50  49  96 CALM      30.25S                  
PALESTINE      MOCLDY    50  45  84 CALM      30.28S                  
NACOGDOCHES      N/A     47  47 100 CALM      30.27F FOG              
$$

TEXAS HILL COUNTRY AND EDWARDS PLATEAU
  
CITY           SKY/WX    TMP DP  RH WIND       PRES   REMARKS
LLANO          PTCLDY    46  41  81 N5        30.32R                  
HORSESHOE BAY  FAIR      48  42  80 CALM      30.27F                  
KERRVILLE      CLOUDY    44  37  78 CALM      30.30R                  
FREDERICKSBRG  CLOUDY    43  38  81 CALM      30.28F                  
ROCKSPRINGS    CLOUDY    54  21  28 S9        30.32F                  
HONDO          CLOUDY    53  40  61 CALM      30.28F                  
UVALDE         PTCLDY    51  37  57 CALM      30.30S                  
DEL RIO        CLOUDY    50  42  74 CALM      30.28S                  
$$

SOUTHEAST TEXAS
  
CITY           SKY/WX    TMP DP  RH WIND       PRES   REMARKS
COLLEGE STN    CLOUDY    51  45  79 CALM      30.28R                  
CALDWELL       CLOUDY    51  40  68 CALM      30.29S                  
CROCKETT         N/A     48  46  93 CALM      30.29S                  
BRENHAM        MOCLDY    49  45  83 CALM      30.30S                  
HUNTSVILLE     CLOUDY    50  47  89 S6        30.27S                  
CONROE         CLOUDY    47  47 100 CALM      30.29S                  
HOUSTON BUSH   CLOUDY    51  50  96 CALM      30.29S                  
HOUSTON HOBBY  MOCLDY    53  49  86 CALM      30.29S                  
PERLAND        FAIR      50  49  96 CALM      30.31S                  
WHARTON        CLOUDY    51  47  87 CALM      30.32R FOG              
$$

THE UPPER TEXAS COAST
  
CITY           SKY/WX    TMP DP  RH WIND       PRES   REMARKS
ORANGE         FAIR      50  50 100 CALM      30.29F                  
PORT ARTHUR    FAIR      50  47  89 W3        30.28F                  
GALVESTON      FAIR      56  54  93 S5        30.30S                  
ANGLETON       FAIR      49  48  97 CALM      30.29F                  
BAY CITY       FAIR      49  49  99 CALM      30.30S FOG              
$$

TEXAS COASTAL BEND, RIO GRANDE PLAINS DEEP SOUTH TEXAS
  
CITY           SKY/WX    TMP DP  RH WIND       PRES   REMARKS
VICTORIA       CLOUDY    51  42  71 S5        30.30S                  
BEEVILLE       FAIR      55  42  60 CALM      30.28F                  
ROCKPORT       CLOUDY    50  47  89 SE3       30.29F                  
PORT ARANSAS   PTCLDY    58  53  83 E6        30.31F                  
PORT LAVACA    NOT AVBL                                               
CORPUS CHRISTI CLOUDY    53  46  77 SE6       30.29F                  
KINGSVILLE NAS CLOUDY    51  46  83 SE5       30.29F                  
COTULLA        CLOUDY    49  38  65 SE6       30.29F                  
LAREDO         PTCLDY    55  34  45 E6        30.28F                  
BROWNSVILLE    FAIR      59  54  83 N3        30.30F                  
PORT ISABEL    FAIR      55  51  86 N5        30.28F                  
HEBBRONVILLE   CLOUDY    51  36  55 CALM      30.31R                  
MCALLEN        CLOUDY    57  48  72 S3        30.31S                  
WESLACO        NOT AVBL                                               
FALFURRIAS     MOCLDY    51  44  75 CALM      30.29F                  
EDINBURG       CLOUDY    54  43  67 CALM      30.31S                  
$$